Location: Home
(42.5358°N, 72.7383°W)
Time: 08:37:05
(UTC-04:00)

A-11 Canister half - Pass Details

Date: 05 July 2022
Orbit: 1514 x 1685 km, 47.2° (Epoch: 15 August)

Event Time Altitude Azimuth Distance (km) Brightness Sun altitude
Rises 21:29:15 0° 230° (SW) 4,911 11.7 -9.3°
Reaches altitude 10° 21:32:25 10° 228° (SW) 3,934 11.2 -9.7°
Maximum altitude 21:42:29 71° 147° (SSE) 1,763 9.1 -11.0°
Drops below altitude 10° 21:52:31 10° 66° (ENE) 3,922 10.9 -12.3°
Sets 21:55:39 0° 65° (ENE) 4,896 11.5 -12.7°
